653  
ASUS46 KPDT 222304  
RWRPDT  
PENDLETON REGIONAL WEATHER ROUNDUP  
NATIONAL WEATHER SERVICE PENDLETON OREGON  
400 PM PDT WED OCT 22 2014  
 
NOTE: FAIR INDICATES FEW OR NO CLOUDS BELOW 12,000 FEET WITH NO  
SIGNIFICANT WEATHER AND/OR S TO VISIBILITY
.  
 
# INDICATES UNOFFICIAL STATION AND DATA  
 
WAZ520-230010-  
EAST SLOPES OF WASHINGTON CASCADES  
 
CITY SKY/WX TMP DP RH WIND PRES REMARKS
 
#BULLFROG N/A 49 48 96 CALM N/A  
#BUMPING DAM N/A 45 N/A N/A CALM N/A  
#CLE ELUM HS N/A 50 48 93 CALM 29.70F  
#CLE ELUM 2NW N/A 48 47 96 CALM N/A  
#CLE ELUM LAKE N/A 46 45 96 CALM 29.69F  
#CLIFFDEL 2NW N/A 47 46 96 N2 N/A  
#EASTON DOT N/A 47 42 83 CALM N/A  
#ELK HTS DOT N/A 49 49 100 NW1 N/A  
#GLENWOOD N/A 52 51 96 CALM 29.73S  
#MANASTASH CYN N/A 48 44 86 CALM 29.71F  
#NELSON N/A 48 47 96 CALM 29.74F  
#NELSON 3SW N/A 45 44 96 CALM 29.92F  
#NILE N/A 49 48 96 CALM 28.99F  
#PEOH POINT N/A 43 43 100 E6 N/A  
#RONALD 2NW N/A 47 46 96 N1 29.60F  
#SNOWDEN N/A 53 48 83 CALM N/A  
#TEANAWAY 4NE N/A 49 49 100 CALM N/A  
#TROUT LAKE HS N/A 53 53 100 S1 N/A  
#TROUT LAKE 1NE N/A 51 50 96 CALM 29.73F  

 
 
WAZ521-230010-  
SIMCOE HIGHLANDS  
 
CITY SKY/WX TMP DP RH WIND PRES REMARKS
 
#BICKLETON HS N/A 53 44 71 E2 29.85F  
#SATUS PASS DOT N/A 49 48 96 NE5 N/A  
#CENTERVILLE 4W N/A 57 50 77 CALM 29.49S  
#CENTERVILLE 1SWN/A 58 48 69 SE1 29.67F  
#GOLDENDALE N/A 59 51 75 E1 N/A  
#GOLDENDALE 1NE N/A 56 51 83 NW3 N/A  
#GOLDENDALE 1S N/A 60 52 75 CALM 29.72S  
#GOLDENDALE 5WNWN/A 57 50 77 CALM 29.71R  
#GOODNOE HILLS N/A 60 51 72 NE3 29.67F  
#LYLE 6NE N/A 51 50 96 CALM 29.70R  

 
 
WAZ026-230010-  
KITTITAS VALLEY  
 
CITY SKY/WX TMP DP RH WIND PRES REMARKS
 
ELLENSBURG AP LGT RAIN 55 50 83 E6 29.72F  
#ELLENSBURG CWU N/A 52 49 89 CALM 29.68F  
#ELLENSBURG 3NE N/A 52 49 89 CALM 29.75F  
#ELLENSBURG N/A 55 54 96 CALM N/A  
#KITTITAS 3S N/A 52 49 89 CALM 29.71F  
#MANASTASH RDG N/A 50 50 100 CALM N/A  
#ROCKY CYN DOT N/A 51 49 93 NW1 N/A  
#RYEGRASS DOT N/A 50 48 93 E7 N/A  
#THORP 6N N/A 49 47 93 CALM 29.73F  

 
 
WAZ027-230010-  
YAKIMA VALLEY  
 
CITY SKY/WX TMP DP RH WIND PRES REMARKS
 
SUNNYSIDE AP LGT DRIZZLE 55 52 90 NE6 29.72F  
YAKIMA AIRPORT LGT RAIN 58 50 75 CALM 29.72F  
YAKIMA-VAGABOND LGT RAIN SH 54 50 86 SW2 29.72F  
#COWICHE 1N N/A 53 49 86 E1 29.88F  
#DONALD 2NE N/A 59 49 69 N2 30.03F  
#GRANDVIEW N/A 57 51 80 CALM 29.71F  
#MABTON N/A 64 51 63 E3 29.70F  
#MOXEE 2E N/A 59 42 53 E10 29.66F  
#NACHES 2SW N/A 54 51 90 E1 29.74S  
#PARKER DOT N/A 60 50 69 W7 N/A  
#SELAH 8E N/A 56 48 74 S12 N/A  
#TERRACE HTS N/A 58 53 83 CALM 29.67F  
#TOPPENISH N/A 60 51 72 E5 29.63S  
#I82 S UMTANUM RN/A 55 47 74 SW2 N/A  
#UNION GAP DOT N/A 59 50 72 CALM N/A  
#WAPATO 4NE N/A 59 49 69 N2 30.03F  
#W YAKIMA N/A 55 50 83 CALM 29.71F  
#WHITE SWAN 5E N/A 61 52 72 NW5 29.71S  
#WILEY CITY 3W N/A 56 42 59 CALM 29.96S  
#ZILLAH DOT N/A 58 51 77 E12 N/A  

 
 
WAZ028-230010-  
LOWER COLUMBIA BASIN...WASHINGTON  
 
CITY SKY/WX TMP DP RH WIND PRES REMARKS
 
PASCO CLOUDY 69 48 47 SW5 29.73F  
PROSSER AWOS N/A 61 52 72 NE5 29.74F  
RICHLAND AWOS MOCLDY 63 54 72 NW8 29.75F  
#BASIN CITY 5SW N/A 59 56 90 CALM 29.75F  
#BENTON CITY N/A 59 53 80 CALM 29.65S  
#CONNELL 5N N/A 58 52 80 CALM 29.76F  
#CONNELL 5NW N/A 60 52 75 CALM 29.73S  
#ELTOPIA N/A 64 54 70 CALM 29.70F  
#ELTOPIA 6NW N/A 61 55 81 CALM 28.73F  
#KENNEWICK 3S N/A 68 50 53 S3 29.74F  
#PASCO-BROADMOORN/A 70 48 46 CALM 29.61F  
#PATERSON N/A 65 54 68 NE1 29.70F  
#PROSSER DOT N/A 62 51 67 CALM N/A  
#PROSSER N/A 62 47 58 SE2 29.71F  
#SAGEMOOR 2W N/A 66 51 58 E2 29.59F  
#TOUCHET 2S N/A 70 45 41 SE10 29.72F  
#WEST PASCO N/A 69 49 49 CALM 29.72F  

 
 
WAZ029-230010-  
FOOTHILLS OF THE BLUES...WASHINGTON  
 
CITY SKY/WX TMP DP RH WIND PRES REMARKS
 
WALLA WALLA AP CLOUDY 72 36 27 S22G29 29.76F  
#LOWDEN 2SE N/A 71 43 36 SE10 29.70F  
#PLEASANT VIEW 1N/A 69 40 35 SE15 29.79F  
#PRESCOTT N/A 73 43 34 S3 29.75F  
#SUDBURY N/A 72 N/A N/A SE12 N/A  
#WHITMAN COLLEGEN/A 71 40 32 SE7 29.78F  
#WAITSBURG 8N N/A 68 28 22 S8 29.74S  
#WALLA WALLA 5E N/A 71 40 32 CALM N/A  
#WALLA WALLA U N/A 72 41 33 CALM 29.73F  
#WHITMAN MISSIONN/A 70 43 38 E3 29.75F  

 
 
WAZ030-230010-  
BLUE MOUNTAINS...WASHINGTON  
 
CITY SKY/WX TMP DP RH WIND PRES REMARKS
 

 
 
ORZ009-041-WAZ024-230010-  
COLUMBIA RIVER GORGE  
 
CITY SKY/WX TMP DP RH WIND PRES REMARKS
 
HOOD RIVER AP RAIN 55 54 96 CALM 29.72F  
THE DALLES AP CLOUDY 57 52 83 NW3 29.71S  
#ARLINGTON AIRPON/A 57 53 86 E3 29.98S  
#ARLINGTON HS N/A 59 53 80 CALM 29.63F  
#CELILO DOT N/A 59 52 78 SW2 N/A  
#LYLE N/A 56 53 90 NE5 29.73S  
#MARYHILL N/A 60 53 78 S7 N/A  
#MARYHILL 2W N/A 59 55 87 SE3 N/A  
#MOSIER 1S N/A 55 53 93 CALM N/A  
#MURDOCK N/A 57 55 93 NW5 29.72F  
#RUFUS DOT N/A N/A N/A N/A CALM N/A  
 

 
 
ORZ510-230010-  
NORTH CENTRAL OREGON  
 
CITY SKY/WX TMP DP RH WIND PRES REMARKS
 
#CHENOWITH 1W N/A 51 50 96 NW6 N/A  
#COW CYN RST AREN/A 61 40 46 S14 N/A  
#DUFUR 9E N/A 60 45 58 S23G36 29.74R  
#GRASS VALLEY N/A 61 44 53 S9 N/A  
#GRASS VALLEY 1SN/A 63 45 52 SW14G25 29.72F  
#KENT DOT N/A 62 35 36 S20 N/A  
#MAUPIN SCHOOL N/A 70 47 44 SW7 28.59S  
#MORO SCHOOL N/A 65 51 60 S6 29.76R  
#SHANIKO 5WSW N/A 59 33 37 S25 N/A  
#SHANIKO 4NW N/A 59 39 47 S23G37 29.77R  
#TYGH VALLEY 2NEN/A 67 49 52 SW8 29.70S  
#WAPANITIA AIRPON/A 65 47 52 SW6 29.72S  
#WASCO DOT N/A 67 42 40 S10 N/A  
#WASCO 5NE N/A 56 51 83 CALM 29.72S  

 
 
ORZ511-230010-  
CENTRAL OREGON  
 
CITY SKY/WX TMP DP RH WIND PRES REMARKS
 
BEND AIRPORT MOCLDY 63 39 41 S20G26 29.83F  
MADRAS AIRPORT CLOUDY 64 41 43 S29G36 29.77F  
PRINEVILLE AP CLOUDY 61 39 44 SE15 29.82F  
REDMOND AIRPORT MOCLDY 63 38 39 S21G25 29.80F  
#BEND 6E N/A 61 38 42 CALM 29.70R  
#BEND 1SW N/A 58 42 55 W3 N/A  
#BEND-KIM LN N/A 61 43 51 S8G28 29.79F  
#CROOKED RVR RANN/A 64 44 48 SW5G24 29.72F  
#CULVER N/A 63 42 46 SE12G26 29.73F  
#LAKE BILLY CHINN/A 63 16 16 CALM 29.82S  
#POWELL BUTTE 3EN/A 62 39 43 S7 N/A  
#POWELL BUTTE N/A 61 40 46 S13 29.47F  
#PRINEVILLE 3N N/A 61 43 51 E14 29.73F  
#WARM SPRINGS N/A 68 45 44 NE5 29.72S  
 
 
ORZ509-230010-  
EAST SLOPES OF OREGON CASCADES  
 
CITY SKY/WX TMP DP RH WIND PRES REMARKS
 
#BLUE BOX PASS N/A 48 -3 11 S14 N/A WCI 42  
#CAMP SHERMAN N/A 60 45 58 S1 29.72S  
#LA PINE DOT N/A 54 35 48 S10 N/A  
#LA PINE 4NW N/A 53 39 59 W6 29.88S  
#LAVA BUTTE DOT N/A 53 35 50 SE8G25 N/A  
#MT BACHELOR-MIDN/A 37 36 96 E24G47 N/A WCI 26  
#SISTERS AIRPOR N/A 61 49 65 N5 29.91S  
#SISTERS ODOT N/A 61 N/A N/A W3 N/A  
#SISTERS 3N N/A 61 43 51 SE3 29.80S  
#SUNRIVER N/A 54 42 64 S5 29.69F  
#SUNRIVER AP N/A 53 41 64 SW10G24 29.78F  
#SUTTLE LK DOT N/A 48 47 96 SW2 N/A  
#TUMALO 3W N/A 58 42 55 SE9 29.65F  
#WANOGA BUTTE D N/A 42 39 89 W15G30 N/A WCI 34  
 

 
 
ORZ044-230010-  
LOWER COLUMBIA BASIN...OREGON  
 
CITY SKY/WX TMP DP RH WIND PRES REMARKS
 
HERMISTON LGT RAIN 70 47 44 W7 29.73F  
#BOARDMAN SCHOOLN/A 65 51 60 CALM 29.72S  
#BOARDMAN 3W N/A 64 56 75 CALM 29.41F  
#BOARDMAN 8SW N/A 63 55 75 NW1 29.71F  
#ECHO 8SW N/A 68 48 49 CALM 29.70F  
#IONE SCHOOL N/A 71 43 36 SW7 29.72F  
#IRRIGON 4NW N/A 68 51 55 NE2 N/A  
#UMATILLA SCHOOLN/A 67 60 78 CALM 29.78R  
#UMATILLA N/A 69 54 59 CALM 29.70F  

 
 
ORZ507-230010-  
NORTHERN FOOTHILLS OF THE BLUES  
 
CITY SKY/WX TMP DP RH WIND PRES REMARKS
 
PENDLETON AIRPT CLOUDY 67 42 40 S16 29.74F  
#ADAMS 3WNW N/A 64 40 41 SE7 29.75F  
#ATHENA N/A 66 39 37 SW2 29.78F  
#CAYUSE N/A 65 41 41 SE17G25 29.73F  
#HELIX SCHOOL N/A 64 41 43 S14 29.76F  
#HELIX 3N N/A 64 40 41 N16G26 29.77F  
#HOLDMAN 5SE N/A 63 49 60 CALM 29.78F  
#HOLDMAN 6E N/A 63 44 50 N3 29.57F  
#M-F FERNDALE N/A 69 38 32 SE1 29.75F  
#M-F GROVE ELEM N/A 69 35 28 E7 29.75F  
#M-FREEWATER 5SEN/A 67 40 37 E14 29.78F  
#PENDLETON DNTN N/A 69 44 40 CALM 28.55F  
#PDT AQUATIC CTRN/A 70 48 46 S6 29.73F  
#PDT SUNRIDGE N/A 70 43 38 E8 29.75F  
#PENDLETON 7NW N/A 65 47 52 S6 27.22F  
#PILOT ROCK N/A 70 37 30 SE15G26 29.79S  
#TUTUILLA N/A 65 51 60 CALM 29.75F  
#UMAPINE 2E N/A 69 44 40 SE8 29.72F  
#WESTON SCHOOL N/A 66 32 28 SW9 29.74F  
 

 
 
ORZ508-230010-  
SOUTHERN FOOTHILLS OF THE BLUES  
 
CITY SKY/WX TMP DP RH WIND PRES REMARKS
 
LEXINGTON CLOUDY 70 39 32 S18G26 29.75F  
#AJAX N/A 63 38 39 S15G26 29.70S  
#CONDON SCHOOL N/A 62 43 50 CALM 29.75F  
#CONDON 5W N/A 58 40 51 S18G37 29.75F  
#HEPPNER EOC N/A 67 41 39 SE7 29.68F  
#HEPPNER 4NE N/A 63 41 44 N1 29.74S  
#LEXINGTON 2SE N/A 71 43 36 S14G24 29.71F  
#MIKKALO N/A 65 45 48 SE6 29.73F  
#OLEX 4N N/A 65 49 56 S7 29.72F  
#RUGGS 5NE N/A 63 39 41 S8G25 29.94S  
#RUGGS 2SW N/A 64 41 43 S12 29.75F  
 

 
 
ORZ502-503-230010-  
BLUE MOUNTAINS  
 
CITY SKY/WX TMP DP RH WIND PRES REMARKS
 
MEACHAM PTCLDY 55 35 47 VRB3 29.86F  
#BATTLE MTN DOT N/A 56 39 53 SE14 N/A  
#HARDMAN 10S N/A 54 40 59 SE7 29.92F  
#HEPPNER 15SE N/A 57 39 51 E2 29.72F  
#LADD CYN SMT N/A 54 28 36 E21 N/A  
#LADD CREEK ODOTN/A 56 35 45 SW8 N/A  
#LONG CREEK HS N/A 59 39 47 S13 29.83F  
#N POWDER DOT N/A 54 34 47 SE30G37 N/A  
#PIKES PEAK N/A 59 35 40 S35 27.99S  
#TROY SCHOOL N/A 67 41 39 W2 29.68F  
#UKIAH N/A 61 39 44 S10 29.87F  
#WESTON 4E N/A 57 36 45 E12 29.74F  

 
 
ORZ505-230010-  
JOHN DAY BASIN  
 
CITY SKY/WX TMP DP RH WIND PRES REMARKS
 
JOHN DAY CLOUDY 60 34 37 S26G35 29.89F  
#JOHN DAY KJDY N/A 62 37 39 E7 30.00F  
#DAYVILLE SCHOOLN/A 66 38 36 SE7 29.83F  
#MONUMENT HS N/A 67 37 33 SE5 29.83F  
#MT. VERNON 5SE N/A 58 37 45 E7 29.86F  
#WINLOCK N/A 59 41 51 N7 29.93S  

 
 
ORZ506-230010-  
OCHOCO AND JOHN DAY HIGHLANDS  
 
CITY SKY/WX TMP DP RH WIND PRES REMARKS
 
#BUCK CREEK DOT N/A 58 42 55 E8 N/A  
#HORSE RIDGE DO N/A 58 37 45 S16G24 N/A  
#KEYES SMT DOT N/A 55 37 51 S12G25 N/A  
#PAULINA SCHOOL N/A 59 37 44 SE2 29.90F  
#PINE MTN OBS N/A 46 37 71 S23G41 N/A WCI 38  
#PRAIRIE CITY N/A 58 33 39 E6 29.86F  
#SENECA N/A 55 N/A N/A S8 N/A  
#SENECA 9NW N/A 54 36 50 S1 29.97F  

 
 
ORZ049-230010-  
GRANDE RONDE VALLEY  
 
CITY SKY/WX TMP DP RH WIND PRES REMARKS
 
LA GRANDE PTCLDY 59 28 30 SE26G39 29.89F  
#COVE N/A 60 37 42 SE12 29.80F  
#COVE SCHOOL N/A 60 36 41 SE9 29.87F  
#COVE 6NW N/A 58 35 42 S7 29.92F  
#ELGIN 3N N/A 61 32 33 S20 29.61F  
#ELGIN 1E N/A 64 36 35 S5 N/A  
#IMBLER SCHOOL N/A 63 35 35 SW3 29.84S  
#ISLAND CITY 4N N/A 55 54 96 CALM 29.70R  
#LADD CYN DOT N/A 58 34 40 S14 N/A  
#UNION 1S N/A 61 34 36 SE8 29.81R  

 
 
ORZ050-230010-  
WALLOWA COUNTY  
 
CITY SKY/WX TMP DP RH WIND PRES REMARKS
 
#ENTERPRISE HS N/A 60 37 42 S7 29.91F  
#IMNAHA SCHOOL N/A 64 31 29 S13G26 29.81F  
#IMNAHA 10S N/A 60 34 37 SW9G24 29.93F  
#JOSEPH 3N N/A 58 40 51 SE17G28 29.92F  
#JOSEPH 3W N/A 54 32 43 E12 29.77F  
#LOSTINE N/A 60 35 39 E2 29.71F  
#MT HOWARD 8000 N/A 36 N/A N/A S15G29 29.95R WCI 27  
#PROMISE 1S N/A 60 38 44 NE8 29.97F  
#SHEEP RDG 7000 N/A 43 31 62 CALM 29.96F  
#WALLOWA SCHOOL N/A 63 36 36 E1 30.84F  
 

 
 
CLICK HERE TO GO TO PREVIOUS BULLETINS.

The Nexlab OR Page
The Nexlab WA Page Main Text Page